Greenville, ME

5:54 AM EST on December 10, 2019 (GMT -0500)
Greenville

Weather History for KGNR - August, 2019

Change the Weather History Date:

Monday, August 19, 2019

  Actual Average (KMLT) Record (KMLT)
Temperature  
Mean Temperature 68 °F -  
Max Temperature 73 °F 76 °F 92 °F (1916)
Min Temperature 63 °F 54 °F 35 °F (1918)
Cooling Degree Days 2    
Growing Degree Days 18 (Base 50)    
Moisture  
Dew Point 65 °F    
Average Humidity 95    
Maximum Humidity 100    
Minimum Humidity 76    
Precipitation  
Precipitation 0.28 in - - ()
Sea Level Pressure  
Sea Level Pressure 29.92 in    
Wind  
Wind Speed 6 mph (SE)    
Max Wind Speed 9 mph    
Max Gust Speed 17 mph    
Averages and records for this station are not official NWS values.
T = Trace of Precipitation, MM = Missing Value Source: NWS Daily Summary

Daily Weather History Graph

Daily Weather History Graph

Search for Another Location

Airport or City:

Astronomy

Aug. 19, 2019 Rise Set
Actual Time 5:43 AM EDT 7:39 PM EDT
Civil Twilight 5:11 AM EDT 8:11 PM EDT
Nautical Twilight 4:32 AM EDT 8:50 PM EDT
Astronomical Twilight 3:49 AM EDT 9:32 PM EDT
Moon 9:48 PM EDT (8/19) 9:31 AM EDT (8/19)
Length of Visible Light 14h 59m
Length of Day
13h 55m
Waning Gibbous, 85% of the Moon is Illuminated
Aug 19
Waning Gibbous
Aug 23
Last Quarter
Aug 30
New
Sep 5
First Quarter
Sep 14
Full

Hourly Weather History & Observations

Time (EDT) Temp. Dew Point Humidity Pressure Visibility Wind Dir Wind Speed Gust Speed Precip Events Conditions
12:56 AM 64.9 °F 64.9 °F 100% 29.97 in - SE 6.9 mph - N/A   Unknown
1:56 AM 64.9 °F 64.9 °F 100% 29.96 in - Variable 3.5 mph - N/A   Unknown
2:56 AM 64.9 °F 64.9 °F 100% 29.96 in - Variable 4.6 mph - N/A   Unknown
3:56 AM 64.0 °F 64.0 °F 100% 29.95 in - SE 6.9 mph - N/A   Unknown
4:56 AM 64.0 °F 63.0 °F 96% 29.95 in - SE 8.1 mph - N/A   Unknown
5:56 AM 63.0 °F 63.0 °F 100% 29.96 in - SSE 6.9 mph - 0.01 in   Unknown
6:56 AM 63.0 °F 63.0 °F 100% 29.95 in - SE 6.9 mph - 0.02 in   Unknown
7:56 AM 64.0 °F 63.0 °F 96% 29.96 in - Variable 3.5 mph - 0.02 in   Unknown
8:56 AM 64.0 °F 63.0 °F 96% 29.94 in - SE 8.1 mph 17.3 mph 0.22 in   Unknown
10:56 AM 64.9 °F 64.9 °F 100% 29.94 in - SSE 6.9 mph - N/A   Unknown
11:56 AM 64.9 °F 64.9 °F 100% 29.94 in - SE 6.9 mph - N/A   Unknown
12:56 PM 66.0 °F 66.0 °F 100% 29.91 in - SE 6.9 mph - N/A   Unknown
1:56 PM 66.9 °F 66.0 °F 97% 29.90 in - SSE 6.9 mph - N/A   Unknown
2:56 PM 66.9 °F 66.9 °F 100% 29.88 in - SSE 9.2 mph - N/A   Unknown
3:56 PM 69.1 °F 68.0 °F 96% 29.86 in - SE 6.9 mph - N/A   Unknown
4:56 PM 72.0 °F 70.0 °F 93% 29.86 in - Variable 3.5 mph - 0.01 in   Unknown
5:56 PM 72.0 °F 70.0 °F 93% 29.87 in - Variable 3.5 mph - N/A   Unknown
6:56 PM 71.1 °F 68.0 °F 90% 29.87 in - South 3.5 mph - N/A   Unknown
7:56 PM 69.1 °F 64.9 °F 87% 29.88 in - Calm Calm - N/A   Unknown
8:56 PM 68.0 °F 64.9 °F 90% 29.90 in - Calm Calm - N/A   Unknown
9:56 PM 68.0 °F 66.0 °F 93% 29.91 in - Calm Calm - N/A   Unknown
10:56 PM 66.9 °F 60.1 °F 79% 29.92 in - NW 9.2 mph 17.3 mph N/A   Unknown
11:56 PM 68.0 °F 60.1 °F 76% 29.91 in - Variable 4.6 mph - N/A   Unknown